Retour au catalogue

KUIPER-00127

ActifCommunicationsLEO
NORAD 65956·PAYLOAD·🇺🇸 United States

Lancé Oct 14, 2025 depuis Cape Canaveral Space Force Station

Loading…

Prochains Passages (prochaines 24 heures)

TLE

FraisSource: CelesTrak SupGP

Époque: Sep 14, 2026, 22:39 UTC

1 65956C 25228K   26257.94383102 -.00014452  00000+0 -18919-2 0  2576
2 65956  51.8995 236.1836 0000796  49.1263 337.1692 14.79944442    16

Suivez KUIPER-00127 en temps réel avec AllMySat

Download on the App Store